Location: Newark
(52.0178°N, 4.7453°W)
Time: 12:12:54
(UTC+00:00)

Envisat - Pass Details

Date: 28 March 2019
Orbit: 764 x 766 km, 98.2° (Epoch: 24 April)

Event Time Altitude Azimuth Distance (km) Brightness Sun altitude
Rises 19:57:01 0° 203° (SSW) 3,223 6.3 -11.5°
Reaches altitude 10° 19:59:47 10° 218° (SW) 2,302 5.7 -11.9°
Maximum altitude 20:03:44 23° 270° (W) 1,612 5.6 -12.5°
Drops below altitude 10° 20:07:42 10° 321° (NW) 2,315 6.5 -13.0°
Sets 20:10:31 0° 336° (NNW) 3,247 7.0 -13.4°
